[[{"header":{"parameterUnit":"m.s-1","parameterCategory":1,"la1":30.2991,"la2":30.254,"lo1":-89.0895,"lo2":-89.0444,"dy":0.0017,"dx":0.0017,"nx":28,"ny":28,"refTime":"2023-09-25T03:00:00:Z","depth":0,"parameterNumber":2,"parameterNumberName":"U-component_of_WINDS"},"data":[0,0,0,0,0,0,0,0,0,0,0,0,0,0,0,0,0,0,0,0,0,0,0,0,0,0,0,0,0,0,0,0,0,0,0,0,0,0,0,0,0,0,0,0,0,0,0,0,0,0,0,0,0,0,0,0,0,0,-1.5906,-1.5906,0,-1.5888,-1.5888,-1.5888,-1.5795,-1.5792,-1.579,-1.5788,-1.5773,-1.5774,-1.5776,0,0,0,0,0,0,0,0,0,0,0,0,0,-1.586,-1.5862,-1.5906,-1.5906,-1.5906,-1.5888,-1.5888,-1.5888,-1.5795,-1.5792,-1.579,-1.5787,-1.5772,-1.5774,-1.5776,0,0,0,0,0,0,0,0,0,0,0,0,0,-1.5865,-1.5862,-1.5906,-1.5857,-1.5852,-1.5888,-1.5888,-1.5888,-1.5796,-1.5792,-1.5789,-1.5786,-1.5772,-1.5774,-1.5776,-1.5859,0,0,-1.5784,-1.5785,0,0,0,0,0,0,0,0,-1.5865,-1.5867,-1.5864,-1.586,-1.5855,-1.584,-1.5866,-1.5878,-1.5797,-1.5817,-1.5788,-1.5784,-1.5798,-1.5798,-1.5802,-1.5858,-1.5858,-1.5784,-1.5786,-1.5787,-1.5788,0,0,0,0,0,0,0,-1.5865,-1.5867,-1.5899,-1.5865,-1.5859,-1.5836,-1.5833,-1.5868,-1.5827,-1.5815,-1.5808,-1.5807,-1.5795,-1.58,-1.5801,-1.5857,-1.5784,-1.5786,-1.5788,-1.5789,-1.5979,-1.5982,0,0,0,0,0,0,-1.5871,-1.5868,-1.59,-1.5898,-1.5852,-1.584,-1.5837,-1.5849,-1.5826,-1.5819,-1.581,-1.5803,-1.5798,-1.5798,-1.58,-1.5895,-1.5787,-1.5789,-1.5791,-1.5975,-1.598,-1.5983,0,0,0,0,0,0,-1.5871,-1.5875,-1.59,-1.5881,-1.5883,-1.5844,-1.5859,-1.585,-1.5855,-1.5822,-1.5815,-1.5823,-1.5795,-1.5797,-1.5845,-1.5893,-1.579,-1.5793,-1.5971,-1.5977,-1.5981,-1.6085,0,0,0,0,0,0,-1.587,-1.5875,-1.5906,-1.5883,-1.5884,-1.5945,-1.5861,-1.5852,-1.5859,-1.585,-1.5832,-1.5826,-1.5792,-1.5841,-1.5847,-1.5894,-1.5795,-1.5967,-1.5974,-1.598,-1.6077,-1.6093,-1.6107,0,0,0,0,0,-1.5868,-1.5937,-1.5908,-1.5913,-1.5922,-1.5948,-1.5949,-1.5908,-1.5864,-1.5894,-1.5873,-1.5827,-1.5887,-1.5847,-1.5853,-1.5902,-1.5963,-1.5972,-1.5979,-1.607,-1.609,-1.6106,0,0,0,0,0,0,-1.5968,-1.5933,-1.5901,-1.5963,-1.5959,-1.5932,-1.597,-1.593,-1.5939,-1.593,-1.5879,-1.5876,-1.5931,-1.5921,-1.5877,-1.598,-1.5917,-1.5927,-1.5984,-1.6003,-1.6017,-1.6019,-1.5797,0,0,0,0,0,-1.5998,-1.6021,-1.5989,-1.6047,-1.6047,-1.6009,-1.6019,-1.5987,-1.5981,-1.5979,-1.5961,-1.5958,-1.5975,-1.5988,-1.6003,-1.6075,-1.6069,-1.6111,-1.6126,-1.6138,-1.6147,-1.6184,-1.6202,-1.6009,-1.6009,-1.6009,0,0,-1.6059,-1.6042,-1.606,-1.6067,-1.606,-1.6086,-1.6008,-1.6039,-1.6057,-1.5984,-1.6027,-1.6015,-1.6007,-1.6067,-1.6093,-1.606,-1.6199,-1.6149,-1.6159,-1.6161,-1.6194,-1.6212,-1.6228,-1.6015,-1.6014,-1.6013,0,0,-1.6182,-1.6173,-1.6219,-1.6213,-1.6203,-1.6177,-1.6189,-1.6167,-1.6155,-1.6198,-1.6143,-1.6164,-1.6196,-1.6193,-1.6196,-1.6317,-1.6274,-1.6323,-1.6401,-1.6437,-1.6452,-1.6465,-1.6508,-1.6524,-1.6332,-1.6332,-1.6332,0,-1.626,-1.6296,-1.6249,-1.6283,-1.6287,-1.622,-1.6267,-1.6264,-1.626,-1.6265,-1.6229,-1.6266,-1.6257,-1.6314,-1.6344,-1.6348,-1.636,-1.6325,-1.6453,-1.6466,-1.6478,-1.6518,-1.6534,-1.6338,-1.6337,-1.6337,-1.6336,0,-1.6391,-1.6417,-1.6456,-1.6452,-1.646,-1.6501,-1.6461,-1.6475,-1.6443,-1.6421,-1.6465,-1.645,-1.6461,-1.6472,-1.6441,-1.6525,-1.6505,-1.6462,-1.6398,-1.6503,-1.654,-1.6555,-1.6346,-1.6344,-1.6343,-1.6341,0,0,-1.6579,-1.6547,-1.6562,-1.6558,-1.6542,-1.6561,-1.6598,-1.6607,-1.662,-1.6619,-1.6649,-1.6677,-1.6636,-1.6639,-1.6607,-1.6639,-1.6735,-1.6591,-1.659,-1.6619,-1.6826,-1.6859,-1.6878,-1.6707,-1.6709,-1.6712,-1.6827,0,-1.6697,-1.6758,-1.6716,-1.6784,-1.6807,-1.6743,-1.6775,-1.6769,-1.6749,-1.6766,-1.6744,-1.6764,-1.6709,-1.671,-1.6739,-1.6717,-1.6776,-1.6709,-1.6734,-1.6736,-1.6738,-1.6897,-1.6932,-1.7041,-1.6841,-1.6843,-1.6845,0,-1.6844,-1.6847,-1.6917,-1.6894,-1.6902,-1.6932,-1.6936,-1.6952,-1.6943,-1.6927,-1.6929,-1.6889,-1.6924,-1.6861,-1.6908,-1.6863,-1.6871,-1.6863,-1.6866,-1.6867,-1.6797,-1.6902,-1.7075,-1.7092,-1.6868,-1.6866,-1.6864,0,-1.6973,-1.6996,-1.704,-1.7039,-1.7013,-1.7036,-1.7026,-1.7014,-1.7021,-1.7025,-1.7029,-1.7037,-1.7042,-1.705,-1.7012,-1.697,-1.7065,-1.6999,-1.7052,-1.7053,-1.7076,-1.7075,-1.7252,-1.7081,-1.7081,-1.7081,-1.708,0,-1.7109,-1.7155,-1.7097,-1.7125,-1.7173,-1.7125,-1.7175,-1.7158,-1.7147,-1.7171,-1.7116,-1.714,-1.7089,-1.7107,-1.7079,-1.7122,-1.7125,-1.7113,-1.7104,-1.7117,-1.7119,-1.7122,-1.7114,-1.7085,-1.7084,-1.7083,-1.7082,0,-1.7263,-1.7226,-1.727,-1.7241,-1.7235,-1.7272,-1.7248,-1.7272,-1.7248,-1.7278,-1.7283,-1.7245,-1.7263,-1.7227,-1.7241,-1.7221,-1.7283,-1.7263,-1.7286,-1.728,-1.7335,-1.733,-1.7521,-1.7543,-1.7358,-1.736,-1.7362,0,-1.7352,-1.7385,-1.736,-1.737,-1.7363,-1.7382,-1.7389,-1.7342,-1.7352,-1.7343,-1.7368,-1.7382,-1.739,-1.7423,-1.7397,-1.7408,-1.7387,-1.7453,-1.7389,-1.74,-1.7388,-1.7386,-1.7389,-1.7467,-1.7469,-1.7471,-1.7472,0,-1.7515,-1.7495,-1.7506,-1.7511,-1.752,-1.7521,-1.7519,-1.7532,-1.7482,-1.7495,-1.7513,-1.7519,-1.7532,-1.7547,-1.755,-1.7541,-1.7499,-1.7493,-1.7506,-1.7519,-1.7531,-1.7525,-1.7322,-1.7489,-1.7487,-1.7486,-1.7485,-1.7484,-1.7639,-1.7665,-1.765,-1.7664,-1.7657,-1.7656,-1.7677,-1.7654,-1.7668,-1.7674,-1.7646,-1.7669,-1.7658,-1.7659,-1.7654,-1.7672,-1.7643,-1.7662,-1.7666,-1.7672,-1.768,-1.7528,-1.7673,-1.7672,-1.7672,-1.7672,-1.7671,0,-1.7799,-1.7785,-1.7799,-1.7796,-1.7807,-1.7765,-1.776,-1.7772,-1.7793,-1.7786,-1.7795,-1.7814,-1.7827,-1.7802,-1.7812,-1.7831,-1.7812,-1.7835,-1.7833,-1.7832,-1.7707,-1.7694,-1.785,-1.785,-1.785,-1.785,-1.785,-1.785,-1.7883,-1.7924,-1.7902,-1.7939,-1.7925,-1.7947,-1.7948,-1.7946,-1.794,-1.7964,-1.7974,-1.7957,-1.7943,-1.795,-1.796,-1.7952,-1.7958,-1.7989,-1.7974,-1.7858,-1.7841,-1.7824,-1.7812,-1.799,-1.799,-1.8098,-1.8099,-1.8099]},{"header":{"parameterUnit":"m.s-1","parameterCategory":1,"la1":30.2991,"la2":30.254,"lo1":-89.0895,"lo2":-89.0444,"dy":0.0017,"dx":0.0017,"nx":28,"ny":28,"refTime":"2023-09-25T03:00:00:Z","depth":0,"parameterNumber":3,"parameterNumberName":"V-component_of_WINDS"},"data":[0,0,0,0,0,0,0,0,0,0,0,0,0,0,0,0,0,0,0,0,0,0,0,0,0,0,0,0,0,0,0,0,0,0,0,0,0,0,0,0,0,0,0,0,0,0,0,0,0,0,0,0,0,0,0,0,0,0,-2.3102,-2.3102,0,-2.3112,-2.3112,-2.3112,-2.309,-2.3089,-2.3089,-2.3088,-2.3098,-2.3098,-2.3099,0,0,0,0,0,0,0,0,0,0,0,0,0,-2.3061,-2.3062,-2.3102,-2.3102,-2.3102,-2.3112,-2.3112,-2.3112,-2.309,-2.3089,-2.3088,-2.3088,-2.3097,-2.3098,-2.3099,0,0,0,0,0,0,0,0,0,0,0,0,0,-2.3076,-2.3062,-2.3102,-2.3092,-2.3091,-2.3112,-2.3112,-2.3112,-2.309,-2.3089,-2.3088,-2.3087,-2.3097,-2.3098,-2.31,-2.313,0,0,-2.3104,-2.3104,0,0,0,0,0,0,0,0,-2.3075,-2.3077,-2.3093,-2.3093,-2.3092,-2.3099,-2.3101,-2.3118,-2.3091,-2.3091,-2.3088,-2.3087,-2.3099,-2.31,-2.3104,-2.313,-2.3131,-2.3104,-2.3105,-2.3105,-2.3106,0,0,0,0,0,0,0,-2.3074,-2.3076,-2.3106,-2.3094,-2.3093,-2.3087,-2.3088,-2.3104,-2.3101,-2.3091,-2.3089,-2.3091,-2.3098,-2.3103,-2.3104,-2.3131,-2.3104,-2.3105,-2.3106,-2.3107,-2.318,-2.3181,0,0,0,0,0,0,-2.3074,-2.3076,-2.3105,-2.3106,-2.3081,-2.3088,-2.3089,-2.3098,-2.31,-2.31,-2.3091,-2.3089,-2.3101,-2.3103,-2.3104,-2.3138,-2.3105,-2.3107,-2.3108,-2.3179,-2.318,-2.3181,0,0,0,0,0,0,-2.3073,-2.3077,-2.3105,-2.309,-2.3094,-2.309,-2.31,-2.3098,-2.3103,-2.3101,-2.31,-2.3097,-2.31,-2.3103,-2.3123,-2.3138,-2.3107,-2.3109,-2.3177,-2.3179,-2.3181,-2.3207,0,0,0,0,0,0,-2.3072,-2.3077,-2.3089,-2.3091,-2.3094,-2.3124,-2.3101,-2.3099,-2.3106,-2.3103,-2.3106,-2.3105,-2.31,-2.3121,-2.3125,-2.314,-2.311,-2.3176,-2.3178,-2.318,-2.3205,-2.321,-2.3214,0,0,0,0,0,-2.3071,-2.3096,-2.309,-2.3093,-2.3109,-2.3125,-2.3127,-2.312,-2.3107,-2.3118,-2.3117,-2.3105,-2.3136,-2.3124,-2.3127,-2.3143,-2.3175,-2.3178,-2.318,-2.3203,-2.3209,-2.3213,0,0,0,0,0,0,-2.3096,-2.3096,-2.3089,-2.3116,-2.3121,-2.3121,-2.3136,-2.3126,-2.3135,-2.3132,-2.3123,-2.3124,-2.3146,-2.3147,-2.3132,-2.3171,-2.3153,-2.3157,-2.317,-2.3175,-2.3179,-2.3178,-2.3111,0,0,0,0,0,-2.3105,-2.3118,-2.3117,-2.3141,-2.3144,-2.3139,-2.3146,-2.314,-2.3144,-2.3146,-2.3146,-2.3151,-2.3161,-2.3168,-2.3178,-2.3205,-2.3205,-2.3218,-2.3222,-2.3226,-2.3228,-2.3241,-2.3246,-2.3189,-2.3189,-2.3189,0,0,-2.3123,-2.3125,-2.3133,-2.3146,-2.3149,-2.3162,-2.3141,-2.3156,-2.3165,-2.3148,-2.3167,-2.3168,-2.3172,-2.3196,-2.3206,-2.3197,-2.3244,-2.3229,-2.3232,-2.3232,-2.3244,-2.3249,-2.3254,-2.3191,-2.3191,-2.3191,0,0,-2.3162,-2.3165,-2.3184,-2.3188,-2.3192,-2.3189,-2.3193,-2.3195,-2.3195,-2.3214,-2.3201,-2.3212,-2.323,-2.3233,-2.3237,-2.3276,-2.3265,-2.328,-2.3302,-2.3314,-2.3319,-2.3323,-2.3335,-2.334,-2.3283,-2.3283,-2.3283,0,-2.3184,-2.3203,-2.3195,-2.3211,-2.3216,-2.3201,-2.322,-2.3223,-2.3231,-2.3234,-2.3224,-2.3246,-2.3248,-2.3272,-2.3281,-2.3285,-2.3289,-2.3279,-2.3319,-2.3323,-2.3326,-2.3338,-2.3342,-2.3284,-2.3284,-2.3284,-2.3284,0,-2.3228,-2.3242,-2.3257,-2.3264,-2.3271,-2.3288,-2.3282,-2.329,-2.3283,-2.3281,-2.3299,-2.3301,-2.331,-2.3316,-2.3309,-2.3337,-2.3331,-2.332,-2.3302,-2.3333,-2.3344,-2.3348,-2.3287,-2.3286,-2.3285,-2.3285,0,0,-2.3284,-2.3286,-2.3291,-2.3293,-2.3297,-2.3307,-2.3323,-2.3331,-2.3337,-2.3343,-2.3355,-2.3371,-2.336,-2.3365,-2.3359,-2.337,-2.3398,-2.3357,-2.3357,-2.3363,-2.3427,-2.3435,-2.344,-2.3392,-2.3393,-2.3393,-2.3426,0,-2.3321,-2.3348,-2.3341,-2.3368,-2.3379,-2.3365,-2.3378,-2.3381,-2.3379,-2.3388,-2.3386,-2.3396,-2.3382,-2.3385,-2.3395,-2.3393,-2.3411,-2.339,-2.3402,-2.3402,-2.34,-2.3446,-2.3454,-2.3485,-2.3431,-2.3432,-2.3432,0,-2.3369,-2.3375,-2.3403,-2.3403,-2.3407,-2.3419,-2.3426,-2.3435,-2.3438,-2.3435,-2.344,-2.3431,-2.3446,-2.3428,-2.3447,-2.3433,-2.3438,-2.3437,-2.3438,-2.3438,-2.3418,-2.3445,-2.3495,-2.35,-2.3439,-2.3438,-2.3438,0,-2.3404,-2.342,-2.3438,-2.3441,-2.3441,-2.345,-2.3451,-2.3453,-2.3458,-2.3463,-2.3466,-2.3474,-2.3478,-2.3483,-2.3477,-2.3465,-2.3496,-2.3478,-2.3493,-2.3494,-2.35,-2.3499,-2.355,-2.3505,-2.3505,-2.3505,-2.3505,0,-2.3446,-2.3463,-2.3454,-2.3465,-2.3483,-2.3474,-2.3492,-2.3491,-2.3493,-2.3502,-2.3491,-2.35,-2.3492,-2.35,-2.3495,-2.351,-2.3513,-2.351,-2.3509,-2.3511,-2.3511,-2.3512,-2.3509,-2.3506,-2.3506,-2.3506,-2.3505,0,-2.3488,-2.3483,-2.3501,-2.35,-2.35,-2.3513,-2.3512,-2.3522,-2.3519,-2.3531,-2.3534,-2.3528,-2.3538,-2.3532,-2.3541,-2.3538,-2.3558,-2.3554,-2.3557,-2.3555,-2.357,-2.3568,-2.3622,-2.3628,-2.3581,-2.3581,-2.3582,0,-2.3514,-2.3527,-2.3527,-2.3532,-2.3534,-2.3543,-2.3548,-2.354,-2.3545,-2.3548,-2.3557,-2.3566,-2.3572,-2.3587,-2.3584,-2.3591,-2.3586,-2.3604,-2.3587,-2.3588,-2.3584,-2.3583,-2.3583,-2.3607,-2.3608,-2.3608,-2.3609,0,-2.3561,-2.3557,-2.3565,-2.3571,-2.3577,-2.3582,-2.3585,-2.359,-2.3582,-2.3589,-2.3598,-2.3602,-2.3611,-2.3619,-2.3625,-2.3625,-2.3615,-2.3614,-2.3618,-2.3619,-2.362,-2.3618,-2.3565,-2.3613,-2.3612,-2.3612,-2.3612,-2.3612,-2.3595,-2.3605,-2.3605,-2.3614,-2.3615,-2.3619,-2.3627,-2.3625,-2.3632,-2.3638,-2.3633,-2.3644,-2.3645,-2.3651,-2.3652,-2.366,-2.3652,-2.3658,-2.3659,-2.366,-2.3661,-2.362,-2.3661,-2.3661,-2.3661,-2.3661,-2.3661,0,-2.3639,-2.3639,-2.3647,-2.3651,-2.3658,-2.3648,-2.3651,-2.3657,-2.3666,-2.3668,-2.3674,-2.3683,-2.369,-2.3688,-2.3694,-2.37,-2.3696,-2.3702,-2.3701,-2.3701,-2.3669,-2.3664,-2.3706,-2.3706,-2.3705,-2.3705,-2.3705,-2.3705,-2.3663,-2.3678,-2.3675,-2.369,-2.369,-2.3699,-2.3702,-2.3704,-2.3706,-2.3717,-2.3722,-2.3721,-2.372,-2.3726,-2.3732,-2.3731,-2.3733,-2.3741,-2.3738,-2.3708,-2.3703,-2.3699,-2.3695,-2.3742,-2.3742,-2.3769,-2.3769,-2.3769]}]]